[[{"header":{"parameterUnit":"m.s-1","parameterCategory":1,"la1":30.2991,"la2":30.254,"lo1":-89.0895,"lo2":-89.0444,"dy":0.0017,"dx":0.0017,"nx":28,"ny":28,"refTime":"2024-05-14T21:00:00:Z","depth":0,"parameterNumber":2,"parameterNumberName":"U-component_of_WINDS"},"data":[0,0,0,0,0,0,0,0,0,0,0,0,0,0,0,0,0,0,0,0,0,0,0,0,0,0,0,0,0,0,0,0,0,0,0,0,0,0,0,0,0,0,0,0,0,0,0,0,0,0,0,0,0,0,0,0,0,0,3.9446,3.9446,0,3.9427,3.9427,3.9426,3.9322,3.9319,3.9317,3.9314,3.9295,3.9297,3.9298,0,0,0,0,0,0,0,0,0,0,0,0,0,3.9395,3.9396,3.9446,3.9446,3.9446,3.9427,3.9426,3.9426,3.9322,3.9319,3.9316,3.9313,3.9294,3.9296,3.9298,0,0,0,0,0,0,0,0,0,0,0,0,0,3.94,3.9397,3.9446,3.9392,3.9386,3.9427,3.9426,3.9426,3.9323,3.9319,3.9315,3.9312,3.9293,3.9296,3.9299,3.9391,0,0,3.9307,3.9308,0,0,0,0,0,0,0,0,3.94,3.9402,3.94,3.9395,3.939,3.9373,3.9401,3.9414,3.9324,3.9347,3.9314,3.931,3.9324,3.9324,3.9328,3.939,3.9389,3.9307,3.9309,3.931,3.9311,0,0,0,0,0,0,0,3.94,3.9403,3.9439,3.94,3.9394,3.9368,3.9365,3.9403,3.9357,3.9345,3.9337,3.9336,3.932,3.9326,3.9327,3.9389,3.9307,3.931,3.9311,3.9312,3.9524,3.9528,0,0,0,0,0,0,3.9407,3.9403,3.9439,3.9438,3.9386,3.9372,3.9368,3.9382,3.9356,3.9348,3.9339,3.9331,3.9323,3.9324,3.9326,3.9431,3.931,3.9313,3.9314,3.952,3.9525,3.9529,0,0,0,0,0,0,3.9406,3.9411,3.944,3.9418,3.942,3.9377,3.9393,3.9384,3.9389,3.9352,3.9343,3.9353,3.932,3.9322,3.9375,3.9429,3.9314,3.9316,3.9515,3.9522,3.9527,3.9642,0,0,0,0,0,0,3.9405,3.9412,3.9446,3.942,3.9422,3.9489,3.9396,3.9386,3.9394,3.9383,3.9363,3.9356,3.9317,3.9372,3.9378,3.9431,3.9318,3.951,3.9518,3.9525,3.9634,3.9652,3.9667,0,0,0,0,0,3.9404,3.9479,3.9448,3.9453,3.9463,3.9493,3.9494,3.9448,3.9399,3.9433,3.9409,3.9357,3.9423,3.9378,3.9384,3.9438,3.9507,3.9516,3.9525,3.9626,3.9648,3.9667,0,0,0,0,0,0,3.9512,3.9475,3.944,3.9509,3.9505,3.9475,3.9516,3.9473,3.9482,3.9472,3.9415,3.9411,3.9473,3.9461,3.9412,3.9526,3.9456,3.9466,3.9531,3.9551,3.9568,3.9568,3.9321,0,0,0,0,0,3.9544,3.9571,3.9537,3.9601,3.9601,3.956,3.9571,3.9536,3.9529,3.9527,3.9507,3.9503,3.9522,3.9537,3.9553,3.9632,3.9626,3.9673,3.9689,3.9703,3.9713,3.9753,3.9774,3.9559,3.9559,3.9559,0,0,3.961,3.9593,3.9614,3.9623,3.9615,3.9644,3.9559,3.9593,3.9614,3.9532,3.958,3.9566,3.9558,3.9625,3.9653,3.9617,3.9771,3.9715,3.9726,3.9728,3.9765,3.9785,3.9803,3.9565,3.9564,3.9563,0,0,3.9745,3.9736,3.9788,3.9783,3.9773,3.9745,3.9758,3.9735,3.9722,3.977,3.9709,3.9734,3.9769,3.9765,3.9768,3.9904,3.9856,3.9911,3.9998,4.0038,4.0055,4.007,4.0117,4.0135,3.9921,3.9921,3.9921,0,3.9829,3.987,3.982,3.9859,3.9864,3.9792,3.9845,3.9842,3.9838,3.9844,3.9804,3.9847,3.9836,3.9901,3.9934,3.9939,3.9952,3.9912,4.0057,4.0071,4.0084,4.0128,4.0147,3.9928,3.9927,3.9926,3.9926,0,3.9972,4.0002,4.0045,4.0043,4.0054,4.01,4.0057,4.0075,4.004,4.0016,4.0066,4.0051,4.0063,4.0076,4.0042,4.0137,4.0114,4.0067,3.9995,4.0112,4.0153,4.0169,3.9937,3.9935,3.9933,3.9931,0,0,4.0172,4.0144,4.016,4.0158,4.0143,4.0165,4.0208,4.0219,4.0235,4.0236,4.027,4.0302,4.0258,4.0261,4.0227,4.0263,4.037,4.021,4.0209,4.0239,4.0472,4.0507,4.0527,4.0339,4.0342,4.0345,4.0472,0,4.0301,4.0371,4.0328,4.0405,4.0432,4.0365,4.0402,4.0397,4.0377,4.0397,4.0375,4.0398,4.0338,4.034,4.0373,4.035,4.0416,4.0341,4.037,4.0371,4.0372,4.0549,4.0585,4.0706,4.0488,4.0491,4.0493,0,4.0459,4.0466,4.0546,4.0525,4.0535,4.0569,4.0576,4.0596,4.059,4.0573,4.0578,4.0534,4.0575,4.0506,4.0561,4.0511,4.0521,4.0512,4.0515,4.0515,4.0438,4.0552,4.0744,4.0762,4.0518,4.0516,4.0514,0,4.0595,4.0625,4.0676,4.0677,4.0655,4.0681,4.0673,4.0663,4.0672,4.0679,4.0685,4.0697,4.0703,4.0714,4.0675,4.0629,4.0736,4.0663,4.0722,4.0723,4.0746,4.0744,4.0941,4.0756,4.0755,4.0755,4.0755,0,4.0741,4.0792,4.0737,4.0769,4.0824,4.0776,4.0832,4.0817,4.0809,4.0836,4.078,4.0807,4.0755,4.0777,4.0748,4.0798,4.0801,4.0788,4.078,4.0792,4.0794,4.0796,4.0786,4.076,4.0759,4.0758,4.0757,0,4.0902,4.0867,4.0919,4.0894,4.0889,4.0931,4.091,4.0939,4.0915,4.0951,4.0957,4.092,4.0944,4.0907,4.0926,4.0906,4.0975,4.0954,4.0977,4.097,4.103,4.1025,4.1234,4.1258,4.1059,4.1061,4.1063,0,4.0996,4.1034,4.1014,4.1028,4.1024,4.1048,4.1057,4.1012,4.1025,4.1021,4.105,4.1068,4.108,4.1121,4.1096,4.1111,4.1089,4.1161,4.109,4.1102,4.1088,4.1085,4.1089,4.1175,4.1177,4.1179,4.1181,0,4.1167,4.1149,4.1165,4.1176,4.1189,4.1196,4.1198,4.1213,4.1165,4.1182,4.1205,4.1215,4.1235,4.1254,4.1262,4.1254,4.121,4.1204,4.1218,4.123,4.1241,4.1235,4.1015,4.1199,4.1197,4.1195,4.1195,4.1194,4.1296,4.1327,4.1317,4.1338,4.1335,4.1338,4.1364,4.1344,4.1362,4.1374,4.1347,4.1377,4.137,4.1377,4.1374,4.1397,4.1365,4.1386,4.1391,4.1396,4.1405,4.124,4.1399,4.1398,4.1398,4.1397,4.1397,0,4.1463,4.1454,4.1473,4.1478,4.1495,4.1452,4.1453,4.1469,4.1496,4.1493,4.1507,4.1534,4.1552,4.153,4.1545,4.1567,4.1547,4.1573,4.1569,4.1568,4.1433,4.1419,4.1589,4.1589,4.1588,4.1588,4.1588,4.1588,4.1551,4.16,4.1581,4.1628,4.1619,4.1647,4.1651,4.1655,4.1652,4.1685,4.17,4.1685,4.1675,4.1689,4.1704,4.1697,4.1704,4.1737,4.1723,4.1597,4.1578,4.156,4.1546,4.1739,4.1739,4.1855,4.1856,4.1857]},{"header":{"parameterUnit":"m.s-1","parameterCategory":1,"la1":30.2991,"la2":30.254,"lo1":-89.0895,"lo2":-89.0444,"dy":0.0017,"dx":0.0017,"nx":28,"ny":28,"refTime":"2024-05-14T21:00:00:Z","depth":0,"parameterNumber":3,"parameterNumberName":"V-component_of_WINDS"},"data":[0,0,0,0,0,0,0,0,0,0,0,0,0,0,0,0,0,0,0,0,0,0,0,0,0,0,0,0,0,0,0,0,0,0,0,0,0,0,0,0,0,0,0,0,0,0,0,0,0,0,0,0,0,0,0,0,0,0,3.565,3.5654,0,3.6021,3.6025,3.6029,3.6166,3.6164,3.6163,3.6162,3.654,3.6551,3.6562,0,0,0,0,0,0,0,0,0,0,0,0,0,3.5057,3.5067,3.5649,3.5654,3.5659,3.602,3.6025,3.603,3.6166,3.6164,3.6163,3.6162,3.6536,3.655,3.6563,0,0,0,0,0,0,0,0,0,0,0,0,0,3.5359,3.507,3.5648,3.577,3.5785,3.6019,3.6025,3.6032,3.6166,3.6164,3.6163,3.6161,3.6532,3.6548,3.6565,3.6705,0,0,3.6616,3.6623,0,0,0,0,0,0,0,0,3.5342,3.5381,3.5747,3.5762,3.5779,3.6045,3.5955,3.6257,3.6167,3.6021,3.6162,3.616,3.6377,3.6406,3.648,3.6723,3.6739,3.6618,3.6628,3.6635,3.664,0,0,0,0,0,0,0,3.5321,3.5366,3.5796,3.5753,3.5772,3.5805,3.5846,3.6013,3.6205,3.6034,3.6045,3.6087,3.6385,3.6463,3.649,3.6745,3.6617,3.6632,3.6642,3.6649,3.7123,3.7126,0,0,0,0,0,0,3.528,3.5347,3.5784,3.5807,3.5551,3.5817,3.5863,3.5961,3.6203,3.6238,3.6088,3.6092,3.6435,3.647,3.6503,3.6686,3.6635,3.6651,3.666,3.7121,3.7124,3.7126,0,0,0,0,0,0,3.5267,3.5318,3.577,3.5581,3.5641,3.583,3.5939,3.597,3.6048,3.6244,3.6279,3.6133,3.6435,3.648,3.6655,3.6701,3.6658,3.6674,3.7118,3.7122,3.7125,3.705,0,0,0,0,0,0,3.5249,3.5312,3.5368,3.5581,3.565,3.5915,3.5941,3.5978,3.6077,3.6086,3.6296,3.6329,3.6437,3.6629,3.6671,3.6723,3.6687,3.7115,3.7119,3.7124,3.705,3.7051,3.7052,0,0,0,0,0,3.5227,3.5331,3.537,3.5422,3.5724,3.5917,3.5957,3.6081,3.608,3.6138,3.6264,3.6322,3.6688,3.6645,3.6694,3.6752,3.7112,3.7118,3.7124,3.7049,3.7051,3.7052,0,0,0,0,0,0,3.5118,3.5361,3.5407,3.5583,3.5728,3.594,3.6017,3.6078,3.6227,3.6228,3.6374,3.6421,3.6584,3.6685,3.6634,3.6901,3.6904,3.6919,3.683,3.6834,3.6835,3.6809,3.6701,0,0,0,0,0,3.5114,3.5251,3.5456,3.5591,3.5662,3.5826,3.5915,3.5998,3.6154,3.6216,3.6355,3.6504,3.6653,3.6748,3.6896,3.7063,3.7112,3.7127,3.7128,3.7128,3.7142,3.724,3.7249,3.7145,3.7145,3.7145,0,0,3.5108,3.5258,3.5336,3.5573,3.5696,3.5835,3.5877,3.6022,3.6127,3.6238,3.6414,3.6519,3.6695,3.6867,3.695,3.6957,3.7181,3.7136,3.7134,3.7148,3.7246,3.7256,3.7265,3.7149,3.7148,3.7148,0,0,3.5169,3.5295,3.5423,3.5545,3.573,3.5839,3.5869,3.6072,3.6147,3.6325,3.6412,3.6537,3.679,3.6913,3.7008,3.7114,3.7174,3.7158,3.7166,3.726,3.7268,3.7276,3.7317,3.733,3.7169,3.7169,3.7169,0,3.5138,3.5352,3.548,3.5622,3.5724,3.5831,3.5962,3.6074,3.6297,3.6365,3.6369,3.669,3.6816,3.7019,3.7045,3.7117,3.7158,3.7136,3.7257,3.7266,3.7276,3.7316,3.7331,3.7166,3.7166,3.7167,3.7167,0,3.5306,3.5453,3.5533,3.5748,3.5859,3.5994,3.6143,3.6239,3.6311,3.6419,3.6598,3.6753,3.6935,3.6988,3.7059,3.7202,3.7201,3.7228,3.7235,3.7281,3.7321,3.7337,3.7162,3.7163,3.7164,3.7164,0,0,3.5312,3.5595,3.5623,3.5722,3.5934,3.605,3.6189,3.6367,3.6449,3.6598,3.672,3.6931,3.6958,3.7066,3.7152,3.7233,3.7311,3.7252,3.7258,3.726,3.748,3.7461,3.7476,3.735,3.7353,3.7356,3.7466,0,3.5403,3.5659,3.5778,3.5981,3.6119,3.6222,3.6343,3.6486,3.6589,3.6721,3.6835,3.6984,3.7007,3.7073,3.7158,3.7283,3.7357,3.7276,3.7466,3.7471,3.7423,3.7497,3.7477,3.7574,3.7483,3.7486,3.7488,0,3.5545,3.5696,3.5913,3.6109,3.6171,3.6279,3.6453,3.6577,3.674,3.681,3.693,3.7012,3.7163,3.7155,3.7365,3.7307,3.7391,3.7464,3.747,3.7496,3.7485,3.7528,3.7608,3.7624,3.7513,3.7511,3.7509,0,3.5531,3.5788,3.5952,3.6033,3.6265,3.6339,3.6438,3.66,3.67,3.6851,3.6918,3.7083,3.7174,3.73,3.7426,3.7408,3.7624,3.7626,3.7688,3.7684,3.7732,3.7728,3.783,3.7779,3.7779,3.7778,3.7778,0,3.5623,3.5753,3.5949,3.605,3.6198,3.6332,3.6475,3.6582,3.6725,3.6849,3.6945,3.7059,3.7216,3.7349,3.7447,3.7607,3.7647,3.7708,3.7733,3.7702,3.7694,3.7762,3.776,3.7782,3.7782,3.7781,3.778,0,3.5635,3.5771,3.5957,3.6161,3.6216,3.6316,3.6491,3.6593,3.67,3.6855,3.6899,3.7068,3.723,3.7366,3.7578,3.7644,3.7811,3.7839,3.7757,3.7771,3.7826,3.782,3.7978,3.8006,3.7932,3.7932,3.7932,0,3.5686,3.5789,3.6004,3.6094,3.6193,3.6337,3.644,3.6575,3.6678,3.6872,3.695,3.7119,3.7262,3.7516,3.7657,3.782,3.7855,3.7899,3.788,3.7846,3.786,3.7854,3.7866,3.7901,3.7901,3.7901,3.7901,0,3.5765,3.5827,3.5972,3.6141,3.6261,3.64,3.6541,3.6609,3.6771,3.6881,3.7049,3.7159,3.7376,3.7543,3.7721,3.7824,3.7891,3.7905,3.7929,3.79,3.7849,3.7881,3.7764,3.7902,3.7902,3.7902,3.7902,3.7902,3.5801,3.5898,3.6065,3.6223,3.6343,3.6473,3.658,3.67,3.6842,3.7031,3.7101,3.7273,3.7434,3.768,3.7783,3.7919,3.7928,3.7961,3.797,3.7977,3.7974,3.7824,3.7951,3.7951,3.7951,3.7952,3.7952,0,3.5888,3.6,3.6144,3.6339,3.6464,3.6514,3.6673,3.6774,3.6924,3.7069,3.7207,3.74,3.7562,3.7715,3.7885,3.7965,3.7999,3.8005,3.8003,3.8026,3.7955,3.7919,3.7974,3.7974,3.7974,3.7974,3.7974,3.7974,3.5948,3.6114,3.6196,3.6423,3.6534,3.6704,3.6791,3.6911,3.7028,3.7239,3.7375,3.7473,3.7622,3.7804,3.7955,3.7996,3.8055,3.8053,3.8102,3.8034,3.803,3.8027,3.7994,3.8064,3.8064,3.8163,3.8164,3.8164]}]]